Location: Shepherdstown, WV
(39.4326°N, 77.8042°W)
Time: 13:44:29
(UTC-04:00)

A-11 Canister half - Visible Passes

Search period start: 28 July 2021 00:00
Search period end: 07 August 2021 00:00
Orbit: 1527 x 1682 km, 47.3° (Epoch: 27 July)

Date Brightness Start Highest point End Pass type
(mag) Time Alt. Az. Time Alt. Az. Time Alt. Az.
28 Jul 10.8 21:55:38 10° W 22:01:30 18° SW 22:07:18 10° SSW visible
29 Jul 10.8 21:33:40 10° W 21:39:56 20° SW 21:46:07 10° SSW visible
30 Jul 10.8 21:11:44 10° W 21:18:21 21° SW 21:24:52 10° S visible
31 Jul 10.8 20:49:49 10° W 20:56:47 23° SW 21:03:36 10° S visible
